• In Uzbekistan
  • List of Countries
  • For 7 days
  • Water Temperature
  • Satellite Maps
  • Weather Map
  • Weather Widgets
  • user-avatar
    Login

    Hourly Weather Ropienka

    Today, 16 July, Monday

    Time Temperature Precipitation Wind Pressure Humidity
    00:00 +14°C° 0 mm 2 mps 719 mmHg 97%
    01:00 +14°C° 0 mm 2 mps 719 mmHg 97%
    02:00 +14°C° 0.1 mm 2 mps 719 mmHg 97%
    03:00 +14°C° 0.1 mm 2 mps 719 mmHg 97%
    04:00 +14°C° 0.1 mm 2 mps 718 mmHg 97%
    05:00 +14°C° 0.1 mm 3 mps 719 mmHg 96%
    06:00 +16°C° 0.1 mm 3 mps 719 mmHg 94%
    07:00 +17°C° 0 mm 4 mps 719 mmHg 92%
    08:00 +18°C° 0.5 mm 4 mps 718 mmHg 90%
    09:00 +19°C° 0.5 mm 4 mps 718 mmHg 88%
    10:00 +20°C° 0.5 mm 4 mps 718 mmHg 86%
    11:00 +20°C° 0.5 mm 4 mps 718 mmHg 83%
    12:00 +21°C° 0.5 mm 4 mps 718 mmHg 80%
    13:00 +22°C° 0.5 mm 4 mps 718 mmHg 78%
    14:00 +22°C° 0.4 mm 4 mps 717 mmHg 77%
    15:00 +22°C° 0.4 mm 4 mps 717 mmHg 77%
    16:00 +22°C° 0.4 mm 4 mps 717 mmHg 76%
    17:00 +21°C° 0.2 mm 4 mps 717 mmHg 81%
    18:00 +20°C° 0.2 mm 3 mps 716 mmHg 85%
    19:00 +18°C° 0.2 mm 2 mps 716 mmHg 90%
    20:00 +18°C° 0.2 mm 2 mps 716 mmHg 92%
    21:00 +17°C° 0.2 mm 2 mps 716 mmHg 93%
    22:00 +16°C° 0.2 mm 2 mps 716 mmHg 95%
    23:00 +16°C° 0.3 mm 2 mps 716 mmHg 96%

    Tomorrow, 17 July, Tuesday

    Time Temperature Precipitation Wind Pressure Humidity
    00:00 +15°C° 0.3 mm 2 mps 715 mmHg 96%
    01:00 +15°C° 0.3 mm 2 mps 715 mmHg 96%
    02:00 +15°C° 0 mm 2 mps 715 mmHg 96%
    03:00 +15°C° 0 mm 2 mps 715 mmHg 96%
    04:00 +14°C° 0 mm 2 mps 715 mmHg 97%
    05:00 +14°C° 0 mm 3 mps 715 mmHg 95%
    06:00 +17°C° 0 mm 3 mps 715 mmHg 92%
    07:00 +18°C° 0 mm 3 mps 715 mmHg 90%
    08:00 +18°C° 0.2 mm 4 mps 715 mmHg 88%
    09:00 +19°C° 0.2 mm 4 mps 715 mmHg 87%
    10:00 +20°C° 0.2 mm 4 mps 716 mmHg 85%
    11:00 +20°C° 0.8 mm 4 mps 715 mmHg 85%
    12:00 +21°C° 0.8 mm 4 mps 715 mmHg 85%
    13:00 +21°C° 0.8 mm 4 mps 715 mmHg 86%
    14:00 +21°C° 0.9 mm 4 mps 715 mmHg 86%
    15:00 +21°C° 0.9 mm 4 mps 715 mmHg 87%
    16:00 +21°C° 0.9 mm 4 mps 714 mmHg 88%
    17:00 +20°C° 0.4 mm 4 mps 714 mmHg 90%
    18:00 +19°C° 0.4 mm 4 mps 714 mmHg 92%
    19:00 +18°C° 0.4 mm 3 mps 714 mmHg 94%
    20:00 +17°C° 0.1 mm 3 mps 715 mmHg 94%
    21:00 +17°C° 0.1 mm 3 mps 715 mmHg 95%
    22:00 +17°C° 0.1 mm 3 mps 715 mmHg 96%
    23:00 +16°C° 0.1 mm 3 mps 714 mmHg 96%

    Day after tomorrow, 18 July, Wednesday

    Time Temperature Precipitation Wind Pressure Humidity
    00:00 +16°C° 0.1 mm 3 mps 714 mmHg 96%
    01:00 +16°C° 0.1 mm 3 mps 714 mmHg 96%
    02:00 +16°C° 0.2 mm 3 mps 714 mmHg 97%
    03:00 +16°C° 0.2 mm 3 mps 714 mmHg 97%
    04:00 +16°C° 0.2 mm 3 mps 714 mmHg 97%
    05:00 +16°C° 0.5 mm 3 mps 714 mmHg 97%
    06:00 +17°C° 0.5 mm 3 mps 714 mmHg 97%
    07:00 +17°C° 0.5 mm 3 mps 714 mmHg 97%
    08:00 +17°C° 1.3 mm 3 mps 714 mmHg 97%
    09:00 +17°C° 1.3 mm 3 mps 714 mmHg 96%
    10:00 +17°C° 1.3 mm 4 mps 714 mmHg 96%
    11:00 +17°C° 0.7 mm 4 mps 714 mmHg 96%
    12:00 +17°C° 0.7 mm 4 mps 714 mmHg 95%
    13:00 +18°C° 0.7 mm 4 mps 714 mmHg 95%
    14:00 +18°C° 0.5 mm 4 mps 714 mmHg 95%
    15:00 +18°C° 0.5 mm 4 mps 714 mmHg 95%
    16:00 +18°C° 0.5 mm 4 mps 714 mmHg 96%
    17:00 +18°C° 1.4 mm 3 mps 714 mmHg 96%
    18:00 +18°C° 1.4 mm 3 mps 714 mmHg 96%
    19:00 +18°C° 1.4 mm 3 mps 714 mmHg 97%
    20:00 +18°C° 0.9 mm 3 mps 714 mmHg 97%
    21:00 +18°C° 0.9 mm 3 mps 714 mmHg 97%
    22:00 +18°C° 0.9 mm 3 mps 714 mmHg 98%
    23:00 +18°C° 0.2 mm 4 mps 714 mmHg 98%

    19 July, Thursday

    Time Temperature Precipitation Wind Pressure Humidity
    00:00 +18°C° 0.2 mm 4 mps 714 mmHg 98%
    01:00 +18°C° 0.2 mm 4 mps 714 mmHg 98%
    02:00 +18°C° 0.1 mm 3 mps 715 mmHg 98%
    03:00 +18°C° 0.1 mm 3 mps 715 mmHg 98%
    04:00 +18°C° 0.1 mm 3 mps 715 mmHg 98%
    05:00 +19°C° 0.1 mm 3 mps 715 mmHg 97%
    06:00 +19°C° 0.1 mm 3 mps 715 mmHg 97%
    07:00 +19°C° 0.1 mm 3 mps 715 mmHg 97%
    08:00 +19°C° 0.4 mm 3 mps 716 mmHg 95%
    09:00 +20°C° 0.4 mm 4 mps 716 mmHg 94%
    10:00 +20°C° 0.4 mm 4 mps 716 mmHg 93%
    11:00 +20°C° 0.2 mm 4 mps 716 mmHg 91%
    12:00 +21°C° 0.2 mm 4 mps 716 mmHg 89%
    13:00 +21°C° 0.2 mm 4 mps 716 mmHg 87%
    14:00 +21°C° 0.1 mm 5 mps 716 mmHg 85%
    15:00 +22°C° 0.1 mm 5 mps 717 mmHg 82%
    16:00 +22°C° 0.1 mm 5 mps 717 mmHg 80%
    17:00 +21°C° 0.1 mm 5 mps 717 mmHg 84%
    18:00 +20°C° 0.1 mm 5 mps 717 mmHg 87%
    19:00 +19°C° 0.1 mm 5 mps 717 mmHg 90%
    20:00 +19°C° 0 mm 4 mps 717 mmHg 92%
    21:00 +18°C° 0 mm 4 mps 717 mmHg 93%
    22:00 +18°C° 0 mm 4 mps 718 mmHg 95%
    23:00 +18°C° 0 mm 4 mps 718 mmHg 95%

    20 July, Friday

    Time Temperature Precipitation Wind Pressure Humidity
    00:00 +18°C° 0 mm 4 mps 718 mmHg 95%
    01:00 +18°C° 0 mm 4 mps 718 mmHg 95%
    02:00 +17°C° 0.1 mm 3 mps 718 mmHg 96%
    03:00 +17°C° 0.1 mm 3 mps 718 mmHg 96%
    04:00 +17°C° 0.1 mm 3 mps 718 mmHg 96%
    05:00 +18°C° 0.1 mm 3 mps 718 mmHg 96%
    06:00 +18°C° 0.1 mm 3 mps 718 mmHg 95%
    07:00 +18°C° 0.1 mm 3 mps 718 mmHg 95%
    08:00 +18°C° 0.1 mm 3 mps 719 mmHg 94%
    09:00 +19°C° 0.1 mm 3 mps 719 mmHg 92%
    10:00 +19°C° 0.1 mm 3 mps 719 mmHg 91%
    11:00 +20°C° 0.1 mm 4 mps 719 mmHg 88%
    12:00 +20°C° 0.1 mm 4 mps 719 mmHg 85%
    13:00 +21°C° 0.1 mm 4 mps 719 mmHg 82%
    14:00 +21°C° 0 mm 4 mps 719 mmHg 81%
    15:00 +21°C° 0 mm 4 mps 719 mmHg 80%
    16:00 +22°C° 0 mm 3 mps 719 mmHg 78%
    17:00 +21°C° 0.1 mm 3 mps 719 mmHg 83%
    18:00 +20°C° 0.1 mm 2 mps 719 mmHg 88%
    19:00 +19°C° 0.1 mm 2 mps 719 mmHg 92%
    20:00 +18°C° 0 mm 2 mps 719 mmHg 93%
    21:00 +18°C° 0 mm 1 mps 719 mmHg 95%
    22:00 +16°C° 0 mm 1 mps 719 mmHg 96%
    23:00 +16°C° 0 mm 1 mps 719 mmHg 96%

    21 July, Saturday

    Time Temperature Precipitation Wind Pressure Humidity
    00:00 +16°C° 0 mm 1 mps 719 mmHg 96%
    01:00 +16°C° 0 mm 1 mps 719 mmHg 96%
    02:00 +15°C° 0 mm 1 mps 719 mmHg 96%
    03:00 +15°C° 0 mm 1 mps 719 mmHg 96%
    04:00 +15°C° 0 mm 1 mps 719 mmHg 96%
    05:00 +16°C° 0 mm 1 mps 719 mmHg 92%
    06:00 +19°C° 0 mm 1 mps 719 mmHg 88%
    07:00 +20°C° 0 mm 1 mps 719 mmHg 84%
    08:00 +22°C° 0 mm 1 mps 719 mmHg 77%
    09:00 +23°C° 0 mm 2 mps 719 mmHg 70%
    10:00 +25°C° 0 mm 2 mps 719 mmHg 63%
    11:00 +25°C° 0 mm 2 mps 719 mmHg 60%
    12:00 +26°C° 0 mm 2 mps 719 mmHg 57%
    13:00 +27°C° 0 mm 2 mps 719 mmHg 53%
    14:00 +26°C° 0 mm 2 mps 718 mmHg 55%
    15:00 +26°C° 0 mm 2 mps 718 mmHg 56%
    16:00 +26°C° 0 mm 2 mps 718 mmHg 58%
    17:00 +24°C° 0 mm 2 mps 718 mmHg 67%
    18:00 +23°C° 0 mm 2 mps 718 mmHg 76%
    19:00 +21°C° 0 mm 1 mps 718 mmHg 85%
    20:00 +20°C° 0 mm 1 mps 717 mmHg 88%
    21:00 +19°C° 0 mm 1 mps 717 mmHg 91%
    22:00 +18°C° 0 mm 1 mps 717 mmHg 93%
    23:00 +16°C° 0 mm 1 mps 717 mmHg 94%
    Show more